Location: ????????
(37.6846°N, 24.0673°E)
Time: 15:01:25
(UTC+00:00)

Meteor 1-21 - Pass Details

Date: 14 July 2020
Orbit: 845 x 887 km, 81.2° (Epoch: 04 August)

Event Time Altitude Azimuth Distance (km) Brightness Sun altitude
Rises 02:32:16 0° 346° (NNW) 3,490 7.7 -7.8°
Reaches altitude 10° 02:34:45 10° 343° (NNW) 2,551 6.9 -7.4°
Maximum altitude 02:40:26 59° 266° (W) 1,015 4.4 -6.4°
Drops below altitude 10° 02:46:07 10° 187° (S) 2,541 6.3 -5.5°
Sets 02:48:35 0° 184° (S) 3,475 7.0 -5.1°
